Regional Weather Roundup
Issued by NWS Kansas City/Pleasant Hill, MO

Home | Current Version | Previous Version | Graphics & Text | Print | Product List | Glossary Off
Versions: 1 2 3 4 5 6 7 8 9 10 11 12 13 14 15 16 17 18 19 20 21 22 23 24 25 26 27

000
ASUS43 KEAX 231010
RWREAX

WEATHER ROUNDUP FOR EASTERN KANSAS AND NORTHWEST MISSOURI
NATIONAL WEATHER SERVICE KANSAS CITY/PLEASANT HILL MO
500 AM CDT SUN APR 23 2017

KSZ040-057-103>105-MOZ028-029-037-043-231100-
...KANSAS CITY METROPOLITAN AREA...

CITY           SKY/WX    TMP DP  RH WIND       PRES   REMARKS
K.C. INTL      CLEAR     46  30  53 N5        30.16F
K.C. DOWNTOWN  CLEAR     45  37  73 CALM      30.16F
LEES SUMMIT    CLEAR     43  33  68 N3        30.16S
OLATHE - IXD   CLEAR     41  32  70 CALM      30.17S
OLATHE - OJC   CLEAR     45  33  63 N6        30.16S
LAWRENCE       CLEAR     35  34  96 NW5       30.17F WCI  31

$$

MOZ001>008-011>017-020>025-030>033-038>040-044>046-053-054-231100-
...NORTHERN AND CENTRAL MISSOURI...

CITY           SKY/WX    TMP DP  RH WIND       PRES   REMARKS
ST. JOSEPH     CLEAR     35  34  96 CALM      30.18S
MOSBY          SUNNY     36  34  93 CALM      30.17S
WHITEMAN AFB   CLEAR     40  37  88 CALM      30.13S
CLINTON        CLEAR     39  36  87 N5        30.14S
SEDALIA        NOT AVBL
WARSAW         NOT AVBL
CHILLICOTHE      N/A     37  34  89 CALM      30.17F
KIRKSVILLE     CLEAR     33  32  96 N5        30.16R WCI  29

$$

MOZ041-047>049-056>058-063>065-088>090-097-231100-
...EASTERN AND SOUTHERN MISSOURI...

CITY           SKY/WX    TMP DP  RH WIND       PRES   REMARKS
ST. LOUIS INTL CLEAR     47  31  53 N7        30.08S
SPIRIT OF STL  CLEAR     37  35  92 CALM      30.08S
COLUMBIA       CLEAR     40  33  76 N8        30.11S WCI  34
JEFFERSON CITY CLEAR     44  33  65 W5        30.11S
ROLLA          CLEAR     41  33  73 N5        30.07S
OSAGE BEACH    CLEAR     42  35  76 N3        30.12R
SPRINGFIELD    CLEAR     40  36  86 N5        30.09R
BRANSON        CLEAR     43  41  93 CALM      30.08S
JOPLIN         CLEAR     40  39  97 N3        30.13R
WEST PLAINS    CLEAR     46  37  71 N12       30.04S

$$

IAZ060-094-KSZ022-034>040-054-083-096-NEZ052-066-093-231100-
...KANSAS...SOUTHEAST NEBRASKA AND IOWA...

CITY           SKY/WX    TMP DP  RH WIND       PRES   REMARKS
TOPEKA         CLEAR     37  37 100 CALM      30.18S
MANHATTAN      CLEAR     34  32  92 CALM      30.19F
EMPORIA        CLEAR     41  36  82 W7        30.17F
CHANUTE        CLEAR     42  34  73 N3        30.16R
WICHITA        CLEAR     40  36  86 NW5       30.19S
OMAHA          CLEAR     43  35  73 CALM      30.17S
LINCOLN        CLEAR     34  31  88 N5        30.19S WCI  30
FALLS CITY     CLEAR     39  33  79 NW3       30.17F
LAMONI         CLEAR     42  32  67 W7        30.16F
DES MOINES     CLEAR     47  29  49 SW3       30.16F

$$





USA.gov is the U.S. government's official web portal to all federal, state and local government web resources and services.